Time,TemperatureF,DewpointF,PressureIn,WindDirection,WindDirectionDegrees,WindSpeedMPH,WindSpeedGustMPH,Humidity,HourlyPrecipIn,Conditions,Clouds,dailyrainin,SoftwareType,DateUTC
2013-01-12 00:02:00,6.0,5.0,-100.00,NNE,22,1.0,4.0,97,-99.99,,,-99.99,,2013-01-12 07:02:00,
2013-01-12 00:12:00,6.0,5.0,-100.00,NNE,22,1.0,4.0,97,-99.99,,,-99.99,,2013-01-12 07:12:00,
2013-01-12 00:22:00,6.0,5.0,-100.00,NNE,15,1.0,4.0,97,-99.99,,,-99.99,,2013-01-12 07:22:00,
2013-01-12 00:32:00,6.0,5.0,-100.00,NNE,32,0.0,3.0,97,-99.99,,,-99.99,,2013-01-12 07:32:00,
2013-01-12 00:42:00,6.0,5.0,-100.00,NNE,32,0.0,3.0,97,-99.99,,,-99.99,,2013-01-12 07:42:00,
2013-01-12 00:52:00,5.0,4.0,-100.00,ENE,58,0.0,1.0,96,-99.99,,,-99.99,,2013-01-12 07:52:00,
2013-01-12 01:02:00,5.0,4.0,-100.00,North,0,0.0,0.0,96,-99.99,,,-99.99,,2013-01-12 08:02:00,
2013-01-12 01:11:00,5.0,4.0,-100.00,North,0,0.0,0.0,96,-99.99,,,-99.99,,2013-01-12 08:11:00,
2013-01-12 01:22:00,4.0,3.0,-100.00,South,183,0.0,2.0,96,-99.99,,,-99.99,,2013-01-12 08:22:00,
2013-01-12 01:32:00,3.0,2.0,-100.00,South,172,0.0,1.0,96,-99.99,,,-99.99,,2013-01-12 08:32:00,
2013-01-12 01:42:00,3.0,2.0,-100.00,South,172,0.0,1.0,96,-99.99,,,-99.99,,2013-01-12 08:42:00,
2013-01-12 01:52:00,3.0,2.0,-100.00,South,173,1.0,3.0,96,-99.99,,,-99.99,,2013-01-12 08:52:00,
2013-01-12 02:02:00,3.0,2.0,-100.00,South,171,0.0,1.0,96,-99.99,,,-99.99,,2013-01-12 09:02:00,
2013-01-12 02:12:00,3.0,2.0,-100.00,South,171,0.0,1.0,96,-99.99,,,-99.99,,2013-01-12 09:12:00,
2013-01-12 02:22:00,2.0,1.0,-100.00,SSE,167,1.0,2.0,95,-99.99,,,-99.99,,2013-01-12 09:22:00,
2013-01-12 02:32:00,2.0,1.0,-100.00,South,174,1.0,3.0,96,-99.99,,,-99.99,,2013-01-12 09:32:00,
2013-01-12 02:42:00,2.0,1.0,-100.00,South,174,1.0,3.0,96,-99.99,,,-99.99,,2013-01-12 09:42:00,
2013-01-12 02:53:00,2.0,1.0,-100.00,SSE,168,0.0,1.0,96,-99.99,,,-99.99,,2013-01-12 09:53:00,
2013-01-12 03:02:00,2.0,1.0,-100.00,South,179,0.0,1.0,96,-99.99,,,-99.99,,2013-01-12 10:02:00,
2013-01-12 03:11:00,2.0,1.0,-100.00,South,179,0.0,1.0,96,-99.99,,,-99.99,,2013-01-12 10:11:00,
2013-01-12 03:22:00,2.0,1.0,-100.00,SSE,166,0.0,1.0,96,-99.99,,,-99.99,,2013-01-12 10:22:00,
2013-01-12 03:32:00,1.0,0.0,-100.00,SSE,165,0.0,0.0,95,-99.99,,,-99.99,,2013-01-12 10:32:00,
2013-01-12 03:42:00,1.0,0.0,-100.00,SSE,165,0.0,0.0,95,-99.99,,,-99.99,,2013-01-12 10:42:00,
2013-01-12 03:52:00,1.0,0.0,-100.00,SSW,199,0.0,2.0,95,-99.99,,,-99.99,,2013-01-12 10:52:00,
2013-01-12 04:02:00,1.0,0.0,-100.00,SE,138,0.0,1.0,95,-99.99,,,-99.99,,2013-01-12 11:02:00,
2013-01-12 04:12:00,1.0,0.0,-100.00,SE,138,0.0,1.0,95,-99.99,,,-99.99,,2013-01-12 11:12:00,
2013-01-12 04:22:00,2.0,1.0,-100.00,ENE,72,0.0,0.0,96,-99.99,,,-99.99,,2013-01-12 11:22:00,
2013-01-12 04:32:00,2.0,1.0,-100.00,South,171,1.0,3.0,95,-99.99,,,-99.99,,2013-01-12 11:32:00,
2013-01-12 04:42:00,2.0,1.0,-100.00,South,171,1.0,3.0,95,-99.99,,,-99.99,,2013-01-12 11:42:00,
2013-01-12 04:53:00,2.0,1.0,-100.00,South,172,0.0,1.0,95,-99.99,,,-99.99,,2013-01-12 11:53:00,
2013-01-12 05:02:00,2.0,1.0,-100.00,SSE,168,0.0,2.0,95,-99.99,,,-99.99,,2013-01-12 12:02:00,
2013-01-12 05:12:00,2.0,1.0,-100.00,SSE,168,0.0,2.0,95,-99.99,,,-99.99,,2013-01-12 12:12:00,
2013-01-12 05:22:00,2.0,1.0,-100.00,SSE,166,0.0,1.0,95,-99.99,,,-99.99,,2013-01-12 12:22:00,
2013-01-12 05:32:00,2.0,1.0,-100.00,SSE,154,0.0,1.0,95,-99.99,,,-99.99,,2013-01-12 12:32:00,
2013-01-12 05:42:00,2.0,1.0,-100.00,SSE,154,0.0,1.0,95,-99.99,,,-99.99,,2013-01-12 12:42:00,
2013-01-12 05:53:00,2.0,1.0,-100.00,South,177,0.0,1.0,95,-99.99,,,-99.99,,2013-01-12 12:53:00,
2013-01-12 06:02:00,2.0,1.0,-100.00,SSE,165,0.0,2.0,95,-99.99,,,-99.99,,2013-01-12 13:02:00,
2013-01-12 06:12:00,2.0,1.0,-100.00,SSE,165,0.0,2.0,95,-99.99,,,-99.99,,2013-01-12 13:12:00,
2013-01-12 06:22:00,3.0,2.0,-100.00,SSE,154,0.0,2.0,96,-99.99,,,-99.99,,2013-01-12 13:22:00,
2013-01-12 06:32:00,3.0,2.0,-100.00,SSE,148,1.0,3.0,96,-99.99,,,-99.99,,2013-01-12 13:32:00,
2013-01-12 06:42:00,3.0,2.0,-100.00,SSE,148,1.0,3.0,96,-99.99,,,-99.99,,2013-01-12 13:42:00,
2013-01-12 06:53:00,4.0,3.0,-100.00,ESE,116,0.0,0.0,96,-99.99,,,-99.99,,2013-01-12 13:53:00,
2013-01-12 07:02:00,3.0,2.0,-100.00,SE,135,0.0,1.0,96,-99.99,,,-99.99,,2013-01-12 14:02:00,
2013-01-12 07:12:00,3.0,2.0,-100.00,SE,135,0.0,1.0,96,-99.99,,,-99.99,,2013-01-12 14:12:00,
2013-01-12 07:22:00,3.0,2.0,-100.00,SE,142,0.0,1.0,96,-99.99,,,-99.99,,2013-01-12 14:22:00,
2013-01-12 07:32:00,3.0,2.0,-100.00,WNW,302,0.0,1.0,95,-99.99,,,-99.99,,2013-01-12 14:32:00,
2013-01-12 07:43:00,3.0,2.0,-100.00,WNW,302,0.0,1.0,95,-99.99,,,-99.99,,2013-01-12 14:43:00,
2013-01-12 07:53:00,2.0,1.0,-100.00,South,174,0.0,1.0,95,-99.99,,,-99.99,,2013-01-12 14:53:00,
2013-01-12 08:03:00,2.0,1.0,-100.00,South,173,0.0,1.0,95,-99.99,,,-99.99,,2013-01-12 15:03:00,
2013-01-12 08:12:00,2.0,1.0,-100.00,South,173,0.0,1.0,95,-99.99,,,-99.99,,2013-01-12 15:12:00,
2013-01-12 08:22:00,1.0,0.0,-100.00,South,169,0.0,2.0,95,-99.99,,,-99.99,,2013-01-12 15:22:00,
2013-01-12 08:33:00,1.0,0.0,-100.00,SSE,167,0.0,2.0,95,-99.99,,,-99.99,,2013-01-12 15:33:00,
2013-01-12 08:42:00,1.0,0.0,-100.00,SSE,167,0.0,2.0,95,-99.99,,,-99.99,,2013-01-12 15:42:00,
2013-01-12 08:53:00,1.0,0.0,-100.00,South,171,1.0,3.0,95,-99.99,,,-99.99,,2013-01-12 15:53:00,
2013-01-12 09:02:00,1.0,0.0,-100.00,South,175,0.0,3.0,95,-99.99,,,-99.99,,2013-01-12 16:02:00,
2013-01-12 09:12:00,1.0,0.0,-100.00,South,175,0.0,3.0,95,-99.99,,,-99.99,,2013-01-12 16:12:00,
2013-01-12 09:22:00,1.0,0.0,-100.00,South,172,0.0,2.0,95,-99.99,,,-99.99,,2013-01-12 16:22:00,
2013-01-12 09:32:00,2.0,1.0,-100.00,SSE,161,0.0,1.0,95,-99.99,,,-99.99,,2013-01-12 16:32:00,
2013-01-12 09:42:00,2.0,1.0,-100.00,SSE,161,0.0,1.0,95,-99.99,,,-99.99,,2013-01-12 16:42:00,
2013-01-12 09:53:00,3.0,2.0,-100.00,South,179,0.0,1.0,95,-99.99,,,-99.99,,2013-01-12 16:53:00,
2013-01-12 10:02:00,3.0,2.0,-100.00,South,178,0.0,1.0,95,-99.99,,,-99.99,,2013-01-12 17:02:00,
2013-01-12 10:12:00,3.0,2.0,-100.00,South,178,0.0,1.0,95,-99.99,,,-99.99,,2013-01-12 17:12:00,
2013-01-12 10:22:00,3.0,2.0,-100.00,South,174,0.0,2.0,95,-99.99,,,-99.99,,2013-01-12 17:22:00,
2013-01-12 10:32:00,3.0,2.0,-100.00,South,187,1.0,2.0,95,-99.99,,,-99.99,,2013-01-12 17:32:00,
2013-01-12 10:42:00,3.0,2.0,-100.00,South,187,1.0,2.0,95,-99.99,,,-99.99,,2013-01-12 17:42:00,
2013-01-12 10:53:00,3.0,2.0,-100.00,South,182,0.0,2.0,95,-99.99,,,-99.99,,2013-01-12 17:53:00,
2013-01-12 11:02:00,4.0,3.0,-100.00,SE,136,1.0,4.0,95,-99.99,,,-99.99,,2013-01-12 18:02:00,
2013-01-12 11:12:00,4.0,3.0,-100.00,SE,136,1.0,4.0,95,-99.99,,,-99.99,,2013-01-12 18:12:00,
2013-01-12 11:22:00,5.0,4.0,-100.00,NE,44,1.0,5.0,95,-99.99,,,-99.99,,2013-01-12 18:22:00,
2013-01-12 11:33:00,5.0,4.0,-100.00,SW,229,1.0,4.0,95,-99.99,,,-99.99,,2013-01-12 18:33:00,
2013-01-12 11:42:00,5.0,4.0,-100.00,SW,229,1.0,4.0,95,-99.99,,,-99.99,,2013-01-12 18:42:00,
2013-01-12 11:53:00,5.0,4.0,-100.00,SSW,201,2.0,7.0,95,-99.99,,,-99.99,,2013-01-12 18:53:00,
2013-01-12 12:03:00,6.0,5.0,-100.00,SW,216,1.0,5.0,95,-99.99,,,-99.99,,2013-01-12 19:03:00,
2013-01-12 12:12:00,6.0,5.0,-100.00,SW,216,1.0,5.0,95,-99.99,,,-99.99,,2013-01-12 19:12:00,
2013-01-12 12:22:00,6.0,5.0,-100.00,North,357,3.0,8.0,95,-99.99,,,-99.99,,2013-01-12 19:22:00,
2013-01-12 12:32:00,6.0,5.0,-100.00,North,359,4.0,8.0,95,-99.99,,,-99.99,,2013-01-12 19:32:00,
2013-01-12 12:42:00,6.0,5.0,-100.00,North,359,4.0,8.0,95,-99.99,,,-99.99,,2013-01-12 19:42:00,
2013-01-12 12:53:00,5.0,4.0,-100.00,North,358,5.0,8.0,95,-99.99,,,-99.99,,2013-01-12 19:53:00,
2013-01-12 13:02:00,5.0,4.0,-100.00,North,356,3.0,6.0,95,-99.99,,,-99.99,,2013-01-12 20:02:00,
2013-01-12 13:12:00,5.0,4.0,-100.00,North,356,3.0,6.0,95,-99.99,,,-99.99,,2013-01-12 20:12:00,
2013-01-12 13:22:00,6.0,5.0,-100.00,NNW,337,2.0,5.0,95,-99.99,,,-99.99,,2013-01-12 20:22:00,
2013-01-12 13:32:00,6.0,5.0,-100.00,North,353,3.0,6.0,95,-99.99,,,-99.99,,2013-01-12 20:32:00,
2013-01-12 13:42:00,6.0,5.0,-100.00,North,353,3.0,6.0,95,-99.99,,,-99.99,,2013-01-12 20:42:00,
2013-01-12 13:53:00,6.0,5.0,-100.00,North,357,4.0,7.0,95,-99.99,,,-99.99,,2013-01-12 20:53:00,
2013-01-12 14:02:00,5.0,4.0,-100.00,North,353,4.0,6.0,95,-99.99,,,-99.99,,2013-01-12 21:02:00,
2013-01-12 14:12:00,5.0,4.0,-100.00,North,353,4.0,6.0,95,-99.99,,,-99.99,,2013-01-12 21:12:00,
2013-01-12 14:22:00,5.0,4.0,-100.00,North,6,5.0,7.0,95,-99.99,,,-99.99,,2013-01-12 21:22:00,
2013-01-12 14:32:00,5.0,4.0,-100.00,North,1,5.0,7.0,95,-99.99,,,-99.99,,2013-01-12 21:32:00,
2013-01-12 14:42:00,5.0,4.0,-100.00,North,1,5.0,7.0,95,-99.99,,,-99.99,,2013-01-12 21:42:00,
2013-01-12 14:53:00,5.0,4.0,-100.00,North,5,5.0,8.0,95,-99.99,,,-99.99,,2013-01-12 21:53:00,
2013-01-12 15:02:00,5.0,4.0,-100.00,NNE,13,6.0,10.0,95,-99.99,,,-99.99,,2013-01-12 22:02:00,
2013-01-12 15:12:00,5.0,4.0,-100.00,NNE,13,6.0,10.0,95,-99.99,,,-99.99,,2013-01-12 22:12:00,
2013-01-12 15:22:00,5.0,4.0,-100.00,NNE,12,7.0,11.0,95,-99.99,,,-99.99,,2013-01-12 22:22:00,
2013-01-12 15:32:00,4.0,3.0,-100.00,North,5,5.0,8.0,95,-99.99,,,-99.99,,2013-01-12 22:32:00,
2013-01-12 15:43:00,4.0,3.0,-100.00,North,5,5.0,8.0,95,-99.99,,,-99.99,,2013-01-12 22:43:00,
2013-01-12 15:53:00,4.0,3.0,-100.00,North,10,7.0,10.0,94,-99.99,,,-99.99,,2013-01-12 22:53:00,
2013-01-12 16:02:00,4.0,3.0,-100.00,NNE,15,5.0,10.0,94,-99.99,,,-99.99,,2013-01-12 23:02:00,
2013-01-12 16:12:00,4.0,3.0,-100.00,NNE,15,5.0,10.0,94,-99.99,,,-99.99,,2013-01-12 23:12:00,
2013-01-12 16:22:00,4.0,3.0,-100.00,NNE,15,5.0,10.0,94,-99.99,,,-99.99,,2013-01-12 23:22:00,
2013-01-12 16:32:00,3.0,2.0,-100.00,NNE,28,2.0,5.0,94,-99.99,,,-99.99,,2013-01-12 23:32:00,
2013-01-12 16:43:00,3.0,2.0,-100.00,NNE,28,2.0,5.0,94,-99.99,,,-99.99,,2013-01-12 23:43:00,
2013-01-12 16:53:00,3.0,2.0,-100.00,West,276,0.0,2.0,95,-99.99,,,-99.99,,2013-01-12 23:53:00,
2013-01-12 17:02:00,3.0,2.0,-100.00,SSW,207,0.0,1.0,95,-99.99,,,-99.99,,2013-01-13 00:02:00,
2013-01-12 17:12:00,3.0,2.0,-100.00,SSW,207,0.0,1.0,95,-99.99,,,-99.99,,2013-01-13 00:12:00,
2013-01-12 17:22:00,2.0,1.0,-100.00,South,186,0.0,1.0,95,-99.99,,,-99.99,,2013-01-13 00:22:00,
2013-01-12 17:32:00,2.0,1.0,-100.00,SSE,153,0.0,1.0,95,-99.99,,,-99.99,,2013-01-13 00:32:00,
2013-01-12 17:42:00,2.0,1.0,-100.00,SSE,153,0.0,1.0,95,-99.99,,,-99.99,,2013-01-13 00:42:00,
2013-01-12 17:53:00,2.0,1.0,-100.00,South,184,0.0,2.0,94,-99.99,,,-99.99,,2013-01-13 00:53:00,
2013-01-12 18:02:00,1.0,0.0,-100.00,SSE,156,0.0,1.0,94,-99.99,,,-99.99,,2013-01-13 01:02:00,
2013-01-12 18:12:00,1.0,0.0,-100.00,SSE,156,0.0,1.0,94,-99.99,,,-99.99,,2013-01-13 01:12:00,
2013-01-12 18:22:00,0.0,-1.0,-100.00,SSW,201,0.0,2.0,94,-99.99,,,-99.99,,2013-01-13 01:22:00,
2013-01-12 18:32:00,0.0,-1.0,-100.00,SE,142,0.0,1.0,94,-99.99,,,-99.99,,2013-01-13 01:32:00,
2013-01-12 18:42:00,0.0,-1.0,-100.00,SE,142,0.0,1.0,94,-99.99,,,-99.99,,2013-01-13 01:42:00,
2013-01-12 18:53:00,0.0,-1.0,-100.00,SSE,160,0.0,3.0,94,-99.99,,,-99.99,,2013-01-13 01:53:00,
2013-01-12 19:02:00,0.0,-1.0,-100.00,South,181,1.0,4.0,94,-99.99,,,-99.99,,2013-01-13 02:02:00,
2013-01-12 19:12:00,0.0,-1.0,-100.00,South,181,1.0,4.0,94,-99.99,,,-99.99,,2013-01-13 02:12:00,
2013-01-12 19:22:00,-1.0,-3.0,-100.00,SSW,199,1.0,4.0,93,-99.99,,,-99.99,,2013-01-13 02:22:00,
2013-01-12 19:32:00,-2.0,-4.0,-100.00,South,175,0.0,1.0,93,-99.99,,,-99.99,,2013-01-13 02:32:00,
2013-01-12 19:42:00,-2.0,-4.0,-100.00,South,175,0.0,1.0,93,-99.99,,,-99.99,,2013-01-13 02:42:00,
2013-01-12 19:53:00,-2.0,-4.0,-100.00,South,169,0.0,1.0,93,-99.99,,,-99.99,,2013-01-13 02:53:00,
2013-01-12 20:02:00,-2.0,-4.0,-100.00,SSE,160,1.0,2.0,93,-99.99,,,-99.99,,2013-01-13 03:02:00,
2013-01-12 20:12:00,-2.0,-4.0,-100.00,SSE,160,1.0,2.0,93,-99.99,,,-99.99,,2013-01-13 03:12:00,
2013-01-12 20:22:00,-2.0,-4.0,-100.00,South,173,0.0,2.0,93,-99.99,,,-99.99,,2013-01-13 03:22:00,
2013-01-12 20:32:00,-3.0,-5.0,-100.00,SSE,163,0.0,2.0,93,-99.99,,,-99.99,,2013-01-13 03:32:00,
2013-01-12 20:42:00,-3.0,-5.0,-100.00,SSE,163,0.0,2.0,93,-99.99,,,-99.99,,2013-01-13 03:42:00,
2013-01-12 20:53:00,-3.0,-5.0,-100.00,SSE,167,1.0,3.0,92,-99.99,,,-99.99,,2013-01-13 03:53:00,
2013-01-12 21:02:00,-3.0,-5.0,-100.00,South,171,1.0,2.0,92,-99.99,,,-99.99,,2013-01-13 04:02:00,
2013-01-12 21:12:00,-3.0,-5.0,-100.00,South,171,1.0,2.0,92,-99.99,,,-99.99,,2013-01-13 04:12:00,
2013-01-12 21:22:00,-3.0,-5.0,-100.00,SSE,163,1.0,3.0,92,-99.99,,,-99.99,,2013-01-13 04:22:00,
2013-01-12 21:32:00,-2.0,-4.0,-100.00,South,175,1.0,3.0,93,-99.99,,,-99.99,,2013-01-13 04:32:00,
2013-01-12 21:42:00,-2.0,-4.0,-100.00,South,175,1.0,3.0,93,-99.99,,,-99.99,,2013-01-13 04:42:00,
2013-01-12 21:52:00,-2.0,-4.0,-100.00,SSE,165,0.0,3.0,92,-99.99,,,-99.99,,2013-01-13 04:52:00,
2013-01-12 22:03:00,-2.0,-4.0,-100.00,SSE,157,1.0,1.0,93,-99.99,,,-99.99,,2013-01-13 05:03:00,
2013-01-12 22:12:00,-2.0,-4.0,-100.00,SSE,157,1.0,1.0,93,-99.99,,,-99.99,,2013-01-13 05:12:00,
2013-01-12 22:22:00,-1.0,-3.0,-100.00,South,169,0.0,1.0,93,-99.99,,,-99.99,,2013-01-13 05:22:00,
2013-01-12 22:32:00,-2.0,-4.0,-100.00,South,173,0.0,0.0,92,-99.99,,,-99.99,,2013-01-13 05:32:00,
2013-01-12 22:42:00,-2.0,-4.0,-100.00,South,173,0.0,0.0,92,-99.99,,,-99.99,,2013-01-13 05:42:00,
2013-01-12 22:53:00,-2.0,-4.0,-100.00,SSE,165,0.0,1.0,93,-99.99,,,-99.99,,2013-01-13 05:53:00,
2013-01-12 23:02:00,-1.0,-3.0,-100.00,ENE,66,0.0,2.0,93,-99.99,,,-99.99,,2013-01-13 06:02:00,
2013-01-12 23:12:00,-1.0,-3.0,-100.00,ENE,66,0.0,2.0,93,-99.99,,,-99.99,,2013-01-13 06:12:00,
2013-01-12 23:22:00,-2.0,-4.0,-100.00,SSE,152,0.0,2.0,92,-99.99,,,-99.99,,2013-01-13 06:22:00,
2013-01-12 23:32:00,-2.0,-4.0,-100.00,South,176,0.0,3.0,93,-99.99,,,-99.99,,2013-01-13 06:32:00,
2013-01-12 23:42:00,-2.0,-4.0,-100.00,South,176,0.0,3.0,93,-99.99,,,-99.99,,2013-01-13 06:42:00,
2013-01-12 23:52:00,-2.0,-4.0,-100.00,SE,129,0.0,2.0,92,-99.99,,,-99.99,,2013-01-13 06:52:00,